Flag for Russia Weather past 2 weeks in Yakutsk, Russia

Now
34 °F

Sunny.


Feels Like: 31 °F
Forecast: 17 / 42 °F
Wind: 3 mph from North

Location: Jakutsk

Current Time: Apr 26, 2015 at 9:31:39 AM

Latest Report: Apr 26, 2015 at 9:00 AM


Visibility: 10 mi

Pressure: 29.45 "Hg

Humidity: 51%

Dew point: 18 °F

Location of YakutskLocation

Historic Weather in Yakutsk — Graph

°F

Yakutsk temperature yesterday

Maximum temperature yesterday: 43 °F (at 2:00 PM)
Minimum temperature yesterday: 25 °F (at 5:00 AM)
Average temperature yesterday: 34 °F

Past Weeks' High & Low Weather Summary

 TemperatureHumidityPressure
High46 °F (Apr 22, 4:30 PM)100% (Apr 16, 11:30 PM)30.36 "Hg (Apr 16, 11:30 PM)
Low-4 °F (Apr 12, 4:30 AM)22% (Apr 21, 3:00 PM)29.36 "Hg (Apr 25, 4:30 AM)
Average27 °F59%29.80 "Hg
* Reported Apr 11 8:00 AM — Apr 26 8:30 AM, Yakutsk, Weather by CustomWeather, © 2015

Note: Actual official high and low records may vary slightly from our data, if they occured in-between our weather recording intervals... More about our weather records

Advertising

Yakutsk weather history for previous 24 hours

 ConditionsComfort  
Time TempWeatherWind HumidityBarometerVisibility
8:30 AM
Sun, Apr 26
32 °FSunny.3 mph60%29.45 "Hg10 mi
8:00 AM30 °FSunny.3 mph59%29.45 "Hg10 mi
7:30 AM28 °FSunny.3 mph64%29.45 "Hg10 mi
7:00 AM28 °FSunny.3 mph64%29.45 "Hg10 mi
6:00 AM25 °FSunny.3 mph74%29.45 "Hg10 mi
5:30 AM23 °FSunny.1 mph80%29.45 "Hg10 mi
5:00 AM21 °FSunny.1 mph80%29.45 "Hg10 mi
4:30 AM21 °FSunny.1 mph80%29.45 "Hg10 mi
4:00 AM21 °FClear.3 mph80%29.45 "Hg10 mi
3:30 AM21 °FClear.3 mph86%29.45 "Hg10 mi
3:00 AM23 °FClear.1 mph80%29.45 "Hg10 mi
2:30 AM25 °FClear.1 mph74%29.45 "Hg10 mi
2:00 AM25 °FClear.3 mph74%29.45 "Hg10 mi
1:30 AM27 °FClear.3 mph69%29.45 "Hg10 mi
1:00 AM27 °FClear.3 mph69%29.45 "Hg10 mi
12:30 AM28 °FClear.3 mph64%29.45 "Hg10 mi
12:00 AM28 °FClear.3 mph69%29.45 "Hg10 mi
11:30 PM
Sat, Apr 25
28 °FClear.3 mph69%29.45 "Hg10 mi
11:00 PM28 °FClear.1 mph69%29.45 "Hg10 mi
10:30 PM30 °FClear.1 mph64%29.45 "Hg10 mi
10:00 PM32 °FClear.3 mph60%29.45 "Hg10 mi
9:30 PM32 °FClear.3 mph60%29.45 "Hg10 mi
9:00 PM34 °FClear.3 mph51%29.45 "Hg10 mi
8:30 PM34 °FClear.6 mph51%29.45 "Hg10 mi
8:00 PM36 °FSunny.6 mph52%29.45 "Hg10 mi
7:30 PM37 °FSunny.6 mph48%29.45 "Hg10 mi
7:00 PM39 °FSunny.6 mph42%29.45 "Hg10 mi
6:30 PM39 °FSunny.8 mph45%29.42 "Hg10 mi
6:00 PM41 °FSunny.8 mph39%29.42 "Hg10 mi
5:30 PM41 °FSunny.10 mph33%29.42 "Hg10 mi
5:00 PM43 °FSunny.10 mph31%29.42 "Hg10 mi
4:30 PM43 °FSunny.10 mph34%29.42 "Hg10 mi
4:00 PM43 °FSunny.10 mph34%29.42 "Hg10 mi
3:30 PM43 °FSunny.10 mph34%29.39 "Hg10 mi
3:00 PM43 °FSunny.13 mph36%29.39 "Hg10 mi
2:30 PM43 °FSunny.13 mph36%29.39 "Hg10 mi
2:00 PM43 °FSunny.15 mph36%29.39 "Hg10 mi
1:30 PM41 °FSunny.15 mph42%29.39 "Hg10 mi
1:00 PM41 °FSunny.13 mph42%29.39 "Hg10 mi
12:30 PM41 °FSunny.13 mph42%29.39 "Hg10 mi
11:30 AM39 °FSunny.10 mph48%29.36 "Hg10 mi
11:00 AM39 °FSunny.10 mph45%29.36 "Hg10 mi
10:30 AM39 °FSunny.10 mph48%29.36 "Hg10 mi
10:00 AM37 °FSunny.8 mph52%29.36 "Hg10 mi
9:30 AM36 °FSunny.8 mph52%29.36 "Hg10 mi
9:00 AM34 °FSunny.6 mph60%29.39 "Hg10 mi
Weather by CustomWeather, © 2015

See weather overviewHow to use our weather pages